sat.trackr.live / text

‹ back to catalog

STARLINK-36740

NORAD 67741 · 2026-026W

PAYLOAD ACTIVE UNKNOWN

§ Identity

Operator
Country
US
Launch date
2026-02-11
Launch site
AFWTR
Launch vehicle
Mass (kg)
RCS (m²)

Purposes: comms

External: N2YO · Heavens-Above · Gunter

§ Orbital elements

Epoch: 2026-05-25T02:50:37.079808Z

Period
93.91 min
Inclination
97.2853°
Eccentricity
0.0000879
Mean motion
15.33441193 rev/d
Perigee alt
465.0 km
Apogee alt
466.2 km
Semi-major
6,843.7 km
B*
2.3411e-4
RAAN
198.7160°
Arg perigee
92.8730°
Mean anomaly
267.2613°
Rev number
1,584

§ Raw data

STARLINK-367401 67741U 26026W   26145.11848472  .00007489  00000+0  23411-3 0  99952 67741  97.2853 198.7160 0000879  92.8730 267.2613 15.33441193 15845

JSON: /api/v1/satellites/67741 · /tle

For live sub-satellite position, see the globe view (requires WebGL).

§ Visibility from observer

Set your observer location to see the next 7 days of passes ≥ 10°. The values pass through the URL so the page stays shareable.

No JS? Fill the form by hand. The geolocation button needs JavaScript.